RH
62 82 86 96 96 100 97 81 94 100 100 100 100 100 100 100 100 92 81 92 100 100 100 100 100 100 97 96 90 77 65 61 64 81 76 84 100 100 95 77 78 84 79 67
66 74 85 78 85 92 91 94 100 100 100 99 79 99 100 100 100 100 76 78 97 89 83 99 100 85 72 72 79 74 70 69 82 82 96 100 96 93 96 86 68 54 42 38
57 79 68 84 87 92 96 100 100 100 100 87 90 100 100 100 100 100 100 97 58 72 79 72 69 69 80 85 70 74 81 77 87 84 78 81 69 57 57 49 42 35 30 28
56 74 56 60 86 100 100 100 96 98 100 99 100 89 95 88 88 90 100 100 100 100 100 100 100 89 84 81 84 99 86 78 85 80 52 58 61 48 38 33 31 28 26 29
64 67 56 62 91 90 97 100 100 98 100 95 80 90 75 86 99 99 87 100 100 100 90 80 67 72 50 44 59 65 86 85 76 62 40 36 36 34 33 33 32 32 32 30
50 74 86 91 90 81 81 87 76 90 96 71 79 79 83 92 94 92 93 96 100 84 77 59 37 35 47 44 68 81 63 35 38 42 38 35 36 37 36 38 38 38 34 35
49 65 99 95 83 96 91 80 81 88 88 86 100 81 77 83 74 76 70 76 59 36 39 36 40 42 35 63 77 70 49 40 37 36 40 46 44 46 37 34 34 40 44 49
27 56 94 98 94 97 92 100 100 93 74 73 79 76 74 70 81 72 46 16 12 33 45 43 36 40 67 63 71 72 57 42 40 48 46 46 42 38 40 46 50 45 42 43
19 37 46 72 78 80 82 66 69 77 72 75 80 80 100 85 44 22 26 22 39 49 54 43 79 66 63 76 66 69 48 50 49 46 52 48 48 47 48 58 54 49 45 41
15 23 27 36 58 67 81 90 93 100 100 85 63 62 47 30 32 56 75 54 44 36 60 88 75 72 84 53 47 50 47 49 49 51 54 56 52 53 58 58 52 51 49 50
14 15 17 21 36 53 56 64 65 67 58 30 31 26 19 15 32 66 51 40 46 46 49 56 70 64 51 50 45 43 43 46 53 64 67 59 59 60 62 57 58 56 54 56
18 17 17 18 32 42 37 24 34 30 27 23 14 14 26 43 61 48 58 70 60 56 61 67 63 57 52 48 43 38 44 56 66 66 62 68 72 78 71 61 60 54 60 60
37 35 29 20 29 27 32 23 25 24 23 52 48 49 60 49 29 44 61 63 64 64 70 61 54 49 56 56 54 62 64 62 63 77 92 100 80 76 64 60 60 59 58 60
54 55 51 61 54 56 74 76 78 80 77 73 79 67 45 27 55 58 47 50 53 55 62 55 53 52 48 63 75 78 74 81 83 79 79 69 64 57 56 63 67 60 60 64
69 65 58 60 58 62 71 66 70 63 60 59 37 31 21 54 61 68 70 53 48 43 35 30 43 66 72 67 61 54 54 59 62 59 53 55 53 61 70 73 64 65 67 72
62 67 47 39 35 30 25 26 22 24 24 27 23 34 41 72 87 90 68 67 75 78 73 71 77 68 55 51 49 48 52 51 48 52 58 65 75 79 74 64 67 68 70 68
65 55 41 31 24 24 34 28 31 30 29 36 43 74 74 68 66 69 77 80 75 61 65 72 72 52 53 59 59 55 55 61 67 72 76 78 75 69 64 70 71 70 65 65
67 52 38 38 34 48 39 33 30 35 33 53 82 84 70 54 62 73 76 74 71 76 78 85 76 78 78 69 67 72 74 70 68 67 73 73 77 68 71 72 71 66 75 83
66 57 59 60 55 59 44 32 26 27 42 82 81 74 72 70 64 64 65 70 86 87 93 80 74 71 76 78 73 76 70 63 62 73 81 87 67 68 75 67 58 65 75 82
64 53 66 83 59 60 57 43 25 35 81 89 85 83 80 80 80 73 82 92 91 87 72 64 67 81 87 93 95 92 82 70 73 80 87 72 68 67 60 68 80 87 88 73
66 46 46 66 58 66 59 42 43 57 92 98 92 85 82 85 91 97 95 94 87 75 75 79 88 97 96 96 88 81 81 80 81 81 67 62 73 67 69 84 93 93 80 64
74 48 39 42 54 57 67 64 66 96 100 96 88 90 90 92 99 100 98 95 93 95 85 96 100 96 96 96 91 85 79 77 77 64 63 74 70 71 85 96 99 92 71 61
77 51 40 38 46 49 71 95 100 93 94 98 100 100 100 100 96 92 96 96 90 74 91 100 100 100 92 84 80 79 79 83 69 68 75 74 74 91 100 100 91 83 65 49
75 54 44 41 45 47 62 89 98 100 99 95 91 90 92 93 98 100 98 86 82 92 97 99 98 91 82 84 83 84 84 73 70 71 79 82 87 96 99 93 83 67 51 44
82 48 43 48 55 47 48 61 81 89 91 92 96 96 95 91 84 81 93 99 100 100 98 92 86 83 84 85 88 84 75 70 73 81 78 79 97 98 91 82 69 52 41 30
81 58 55 47 54 57 58 55 54 64 79 98 100 100 100 100 100 100 97 99 99 90 86 84 86 87 89 85 80 73 68 75 81 74 78 94 92 88 76 68 52 40 29 20
Wind_Speed
12 6 17 25 26 30 36 34 41 39 38 33 28 29 25 23 27 30 30 38 52 57 44 45 53 54 48 46 49 53 57 64 65 62 59 59 61 63 67 70 69 71 72 72
13 11 14 21 26 29 31 34 37 37 35 33 31 26 27 28 30 33 31 40 49 45 45 42 46 49 51 50 54 55 53 51 51 52 53 59 61 61 62 64 66 67 66 65
13 11 11 18 20 23 24 27 38 31 32 32 28 30 29 33 34 29 27 30 28 31 28 29 34 37 37 39 40 42 45 46 49 51 53 56 57 59 59 60 60 60 61 62
12 16 17 13 18 24 24 25 34 30 27 30 30 28 30 29 31 34 33 36 40 41 41 38 36 42 44 43 36 40 41 41 43 47 49 49 51 50 52 54 58 60 62 60
9 10 13 16 21 23 27 30 31 30 27 30 28 29 28 27 31 33 34 35 39 41 43 41 41 41 40 31 30 37 37 38 44 43 42 43 45 48 53 56 59 60 62 66
13 11 11 14 17 20 26 34 31 30 28 25 27 28 27 30 30 32 34 37 37 40 40 41 35 32 28 28 31 32 36 35 34 38 41 44 47 52 55 59 61 62 64 65
14 10 11 12 12 16 18 24 26 26 27 28 29 27 28 31 31 32 32 30 35 33 38 38 38 29 23 23 27 32 34 36 36 40 44 45 48 51 53 56 59 63 65 65
16 12 14 15 16 17 26 23 27 29 29 27 28 28 28 28 31 33 33 27 28 30 34 31 25 23 26 25 30 35 39 40 43 44 46 49 51 53 56 60 61 63 63 64
19 25 16 18 18 23 24 26 29 28 30 29 28 26 27 29 31 29 28 25 26 25 29 27 30 30 25 31 33 36 40 44 46 47 49 53 56 59 62 64 66 65 68 72
20 26 26 21 21 22 25 28 28 29 32 32 29 29 29 30 26 23 29 26 24 25 28 34 37 33 34 34 33 37 42 46 49 52 55 58 59 62 64 66 66 70 74 78
23 22 25 26 21 25 25 30 27 29 33 33 30 28 28 27 26 22 24 23 22 22 24 27 28 34 36 36 37 40 43 48 52 55 59 62 64 65 65 68 73 78 82 85
23 21 22 22 20 23 26 26 30 29 30 34 30 27 27 26 22 22 22 25 25 24 26 29 34 36 37 39 40 43 47 49 53 58 64 66 66 68 70 74 79 83 86 89
24 22 22 20 20 22 23 21 21 26 28 30 29 28 23 24 20 20 24 24 25 27 30 33 34 35 37 42 47 49 51 53 57 61 63 65 69 70 73 78 84 87 90 95
24 25 20 21 20 20 21 22 24 27 29 29 31 29 24 22 19 21 24 26 28 30 32 33 34 35 39 45 49 52 53 56 59 61 63 67 69 72 78 84 88 90 95 95
23 27 23 23 22 22 24 27 28 29 30 32 29 31 23 21 22 23 27 30 31 33 34 34 38 42 45 49 50 52 56 61 62 64 67 70 74 80 85 88 92 94 97 93
24 25 24 25 25 23 26 28 30 30 30 32 31 27 21 19 24 30 33 32 35 38 41 43 46 47 49 50 53 57 62 63 64 68 72 77 82 86 90 91 92 99 96 96
27 27 25 26 26 26 27 34 30 31 31 27 26 25 27 29 30 32 35 38 42 44 47 50 52 52 54 57 59 65 66 67 70 73 78 82 87 91 90 92 98 96 98 103
30 30 29 27 26 27 32 30 32 31 29 24 27 29 32 32 33 36 40 44 47 51 54 56 56 58 60 64 67 69 70 72 76 80 84 89 92 93 94 99 97 98 103 106
34 31 25 24 26 29 31 31 29 28 26 27 30 32 35 37 40 42 44 48 52 55 58 58 59 61 64 67 70 73 77 80 83 87 91 94 95 96 101 99 95 102 106 110
37 33 33 28 29 28 31 31 28 27 28 31 34 37 39 42 45 47 48 52 55 58 59 60 60 62 67 70 73 78 83 85 89 92 94 97 98 102 100 102 109 111 113 115
39 38 38 37 32 30 33 30 30 30 32 36 39 40 43 45 47 49 51 55 59 60 61 62 64 67 70 73 78 83 87 91 93 95 96 96 102 102 101 105 110 114 117 117
41 41 40 40 36 34 33 32 33 36 38 40 42 44 46 47 49 52 55 58 60 63 64 66 69 73 76 80 84 89 93 94 96 96 98 101 102 102 106 110 114 119 119 119
43 43 42 41 38 36 35 36 37 40 43 44 45 46 48 50 53 56 59 60 63 63 67 69 73 78 83 87 90 93 94 97 98 99 102 102 102 106 108 112 118 121 120 116
43 44 43 43 42 40 40 40 42 44 45 47 48 50 53 55 57 58 61 64 65 68 70 74 79 83 87 91 93 95 97 98 99 101 101 101 105 108 112 116 119 119 117 117
46 45 47 45 46 46 45 45 46 47 48 50 51 53 55 58 60 63 66 67 69 71 76 80 84 88 91 93 96 97 98 99 102 100 101 105 108 111 115 117 120 118 117 114
49 48 49 48 48 49 50 51 51 51 51 51 53 56 60 63 65 68 69 71 74 78 82 85 89 92 94 96 96 97 100 101 99 102 105 108 110 115 116 118 117 117 112 109
Wind_Direction
324 253 208 212 209 202 200 198 200 205 207 203 204 209 218 224 223 227 236 224 218 221 226 240 242 241 250 261 259 261 263 265 267 263 266 265 273 277 278 283 284 284 285 287
321 298 239 218 209 205 207 205 202 205 214 214 212 211 228 230 237 245 236 226 220 223 228 244 255 255 253 255 260 263 262 264 268 270 268 273 277 280 280 281 282 284 284 283
310 288 271 236 221 220 214 214 207 215 214 220 215 213 225 232 234 235 244 244 240 226 255 256 261 264 270 277 275 272 269 272 271 273 273 275 278 280 282 282 282 282 281 281
294 275 280 268 229 226 219 213 212 218 215 216 226 227 231 223 230 234 241 243 243 244 256 262 263 267 270 273 274 270 273 271 273 272 273 276 279 282 280 280 280 280 281 284
307 274 263 257 234 226 217 210 218 217 224 228 231 237 235 239 238 243 252 255 253 250 251 256 258 265 270 270 271 268 268 264 272 277 280 280 279 278 280 281 283 287 288 290
296 294 273 262 249 239 220 213 218 223 231 233 237 242 245 246 243 236 241 245 253 259 263 267 267 259 266 269 270 265 268 275 278 278 277 279 281 283 284 285 287 289 291 295
290 287 279 255 239 230 228 225 218 224 229 238 240 246 244 248 251 254 249 245 256 263 263 265 269 265 261 276 269 271 277 279 277 277 279 285 290 292 291 292 294 295 298 299
278 256 252 240 236 239 224 217 224 234 241 238 245 255 256 254 254 255 261 256 253 253 262 263 273 275 288 283 275 272 278 278 276 281 286 292 295 298 302 306 304 300 298 299
276 260 259 258 244 238 240 241 241 247 251 255 258 253 257 263 266 263 264 263 264 258 261 271 280 282 282 281 273 274 278 283 287 290 293 296 299 302 306 307 306 305 304 306
273 259 258 247 252 253 246 251 251 250 255 257 253 252 255 252 253 261 265 273 272 268 263 267 274 280 282 275 274 278 285 290 292 294 298 299 301 305 307 306 309 310 311 309
275 263 265 263 253 261 267 256 250 253 259 263 257 254 256 257 265 261 266 270 270 269 270 274 275 272 274 275 280 286 291 294 298 300 299 302 304 307 309 310 313 314 313 312
274 266 260 257 259 263 268 268 255 259 264 262 262 259 257 260 260 261 248 249 254 262 269 269 270 277 286 292 294 294 295 298 299 300 303 305 308 308 309 310 313 313 313 313
277 274 269 260 251 254 261 264 264 258 254 258 268 263 257 263 258 239 242 254 264 268 270 273 278 287 294 299 301 301 300 302 304 304 304 304 306 306 308 310 312 313 314 314
276 272 268 266 258 262 263 264 260 260 261 260 262 266 261 259 241 248 253 260 262 267 273 278 281 281 288 298 298 299 302 302 299 297 299 303 306 308 310 312 313 313 314 314
267 271 273 268 268 267 265 265 265 263 261 264 270 268 262 250 258 262 265 269 277 276 278 285 295 295 292 291 292 295 297 301 301 301 305 307 310 311 312 313 312 313 314 312
265 259 264 269 269 265 264 264 262 264 264 263 270 265 260 255 262 265 274 283 284 286 288 290 290 287 288 290 295 299 301 302 305 307 309 310 312 313 313 313 312 313 313 313
267 263 265 264 264 268 262 263 271 267 267 266 259 252 255 259 261 270 277 281 284 290 293 294 295 297 298 300 302 303 306 307 309 309 310 312 313 314 313 313 313 313 314 316
262 259 262 260 269 268 266 269 269 268 269 257 251 254 259 263 269 274 278 284 290 295 296 297 300 302 302 302 303 305 308 310 310 310 311 312 314 314 313 314 314 316 317 318
261 262 261 261 265 266 268 270 267 267 258 253 254 259 266 271 274 280 285 290 291 293 294 297 300 301 301 301 304 307 309 310 310 311 312 313 315 315 315 313 313 315 319 320
260 263 258 263 264 269 272 272 269 265 261 259 261 266 269 272 277 282 287 288 289 291 295 297 299 300 300 302 305 306 307 309 310 311 312 314 315 313 314 317 320 322 321 321
253 255 260 261 261 267 272 270 269 267 262 266 267 268 272 278 282 284 285 288 291 295 298 299 299 299 300 300 301 303 306 309 311 312 313 313 315 316 317 319 320 320 319 321
252 254 257 256 256 262 269 271 265 264 266 267 271 276 279 281 283 285 287 289 292 295 296 297 298 298 299 299 302 306 309 310 311 313 314 314 315 317 318 320 319 318 320 320
249 252 256 255 256 260 264 264 264 264 267 271 273 275 277 278 280 283 286 289 292 293 294 295 295 296 297 301 305 307 309 310 312 313 314 314 316 318 318 318 318 320 320 319
250 252 257 257 257 256 257 259 261 264 268 271 273 275 276 279 282 284 286 289 291 292 293 293 294 297 300 303 306 307 308 310 311 312 313 315 316 317 318 316 318 319 319 318
251 253 257 256 257 257 257 259 262 265 269 273 276 278 279 281 283 286 288 289 291 291 291 293 297 300 301 304 305 306 309 310 311 311 313 314 316 316 316 317 318 318 317 317
249 253 256 257 256 259 260 260 262 264 267 270 274 276 278 279 282 284 285 288 288 290 293 296 299 300 302 304 304 307 309 309 310 312 313 315 315 316 317 317 317 317 316 316